Time,TemperatureF,DewpointF,PressureIn,WindDirection,WindDirectionDegrees,WindSpeedMPH,WindSpeedGustMPH,Humidity,HourlyPrecipIn,Conditions,Clouds,dailyrainin,SoftwareType,DateUTC
2013-05-20 00:03:00,56.0,56.0,30.03,East,88,2.0,-999.0,100,-99.99,,,-99.99,,2013-05-20 04:03:00,
2013-05-20 00:13:00,56.0,56.0,30.03,East,88,2.0,-999.0,100,-99.99,,,-99.99,,2013-05-20 04:13:00,
2013-05-20 00:23:00,56.0,56.0,30.03,NE,54,2.0,-999.0,100,-99.99,,,-99.99,,2013-05-20 04:23:00,
2013-05-20 00:33:00,56.0,55.0,30.02,East,98,2.0,-999.0,97,-99.99,,,-99.99,,2013-05-20 04:33:00,
2013-05-20 00:42:00,56.0,55.0,30.02,East,98,2.0,-999.0,97,-99.99,,,-99.99,,2013-05-20 04:42:00,
2013-05-20 00:52:00,56.0,55.0,30.02,East,80,2.0,-999.0,96,-99.99,,,-99.99,,2013-05-20 04:52:00,
2013-05-20 01:02:00,57.0,56.0,30.03,East,94,2.0,-999.0,96,-99.99,,,-99.99,,2013-05-20 05:02:00,
2013-05-20 01:12:00,56.0,55.0,30.03,East,98,3.0,-999.0,96,-99.99,,,-99.99,,2013-05-20 05:12:00,
2013-05-20 01:22:00,56.0,55.0,30.03,East,98,3.0,-999.0,96,-99.99,,,-99.99,,2013-05-20 05:22:00,
2013-05-20 01:32:00,56.0,55.0,30.03,ENE,72,3.0,-999.0,97,-99.99,,,-99.99,,2013-05-20 05:32:00,
2013-05-20 01:42:00,56.0,55.0,30.03,ENE,72,3.0,-999.0,97,-99.99,,,-99.99,,2013-05-20 05:42:00,
2013-05-20 01:51:00,56.0,55.0,30.02,NE,53,3.0,-999.0,98,-99.99,,,-99.99,,2013-05-20 05:51:00,
2013-05-20 02:01:00,56.0,56.0,30.03,NE,51,3.0,-999.0,99,-99.99,,,-99.99,,2013-05-20 06:01:00,
2013-05-20 02:11:00,56.0,56.0,30.03,NE,51,3.0,-999.0,99,-99.99,,,-99.99,,2013-05-20 06:11:00,
2013-05-20 02:21:00,56.0,56.0,30.01,East,84,2.0,-999.0,99,-99.99,,,-99.99,,2013-05-20 06:21:00,
2013-05-20 02:32:00,56.0,56.0,30.01,East,92,2.0,-999.0,99,-99.99,,,-99.99,,2013-05-20 06:32:00,
2013-05-20 02:42:00,56.0,56.0,30.01,East,92,2.0,-999.0,99,-99.99,,,-99.99,,2013-05-20 06:42:00,
2013-05-20 02:52:00,56.0,56.0,30.01,East,90,3.0,-999.0,99,-99.99,,,-99.99,,2013-05-20 06:52:00,
2013-05-20 03:02:00,56.0,56.0,30.01,East,98,3.0,-999.0,99,-99.99,,,-99.99,,2013-05-20 07:02:00,
2013-05-20 03:12:00,56.0,56.0,30.01,East,98,3.0,-999.0,99,-99.99,,,-99.99,,2013-05-20 07:12:00,
2013-05-20 03:21:00,56.0,56.0,30.02,ESE,105,3.0,-999.0,99,-99.99,,,-99.99,,2013-05-20 07:21:00,
2013-05-20 03:32:00,56.0,56.0,30.02,East,97,3.0,-999.0,99,-99.99,,,-99.99,,2013-05-20 07:32:00,
2013-05-20 03:42:00,56.0,56.0,30.02,East,97,3.0,-999.0,99,-99.99,,,-99.99,,2013-05-20 07:42:00,
2013-05-20 03:52:00,56.0,56.0,30.02,East,89,2.0,-999.0,99,-99.99,,,-99.99,,2013-05-20 07:52:00,
2013-05-20 04:01:00,56.0,56.0,30.03,East,94,1.0,-999.0,99,-99.99,,,-99.99,,2013-05-20 08:01:00,
2013-05-20 04:11:00,56.0,56.0,30.03,East,94,1.0,-999.0,99,-99.99,,,-99.99,,2013-05-20 08:11:00,
2013-05-20 04:21:00,56.0,56.0,30.03,East,99,1.0,-999.0,99,-99.99,,,-99.99,,2013-05-20 08:21:00,
2013-05-20 04:32:00,56.0,56.0,30.03,East,96,1.0,-999.0,99,-99.99,,,-99.99,,2013-05-20 08:32:00,
2013-05-20 04:42:00,56.0,56.0,30.03,East,96,1.0,-999.0,99,-99.99,,,-99.99,,2013-05-20 08:42:00,
2013-05-20 04:51:00,56.0,56.0,30.03,East,89,2.0,-999.0,99,-99.99,,,-99.99,,2013-05-20 08:51:00,
2013-05-20 05:02:00,56.0,56.0,30.03,NE,37,1.0,-999.0,99,-99.99,,,-99.99,,2013-05-20 09:02:00,
2013-05-20 05:12:00,56.0,56.0,30.03,NE,37,1.0,-999.0,99,-99.99,,,-99.99,,2013-05-20 09:12:00,
2013-05-20 05:22:00,56.0,54.0,30.02,SE,132,0.0,-999.0,94,-99.99,,,-99.99,,2013-05-20 09:22:00,
2013-05-20 05:33:00,56.0,53.0,30.01,NNE,24,0.0,-999.0,89,-99.99,,,-99.99,,2013-05-20 09:33:00,
2013-05-20 05:43:00,56.0,53.0,30.01,NNE,24,0.0,-999.0,89,-99.99,,,-99.99,,2013-05-20 09:43:00,
2013-05-20 05:52:00,57.0,52.0,30.02,NW,324,0.0,-999.0,82,-99.99,,,-99.99,,2013-05-20 09:52:00,
2013-05-20 06:03:00,57.0,52.0,30.01,NW,306,0.0,-999.0,83,-99.99,,,-99.99,,2013-05-20 10:03:00,
2013-05-20 06:12:00,57.0,52.0,30.01,NW,306,0.0,-999.0,83,-99.99,,,-99.99,,2013-05-20 10:12:00,
2013-05-20 06:22:00,57.0,51.0,30.02,WNW,294,1.0,-999.0,81,-99.99,,,-99.99,,2013-05-20 10:22:00,
2013-05-20 06:33:00,56.0,52.0,30.02,NNW,338,1.0,-999.0,85,-99.99,,,-99.99,,2013-05-20 10:33:00,
2013-05-20 06:42:00,56.0,52.0,30.02,NNW,338,1.0,-999.0,85,-99.99,,,-99.99,,2013-05-20 10:42:00,
2013-05-20 06:52:00,57.0,51.0,30.02,NNE,15,2.0,-999.0,81,-99.99,,,-99.99,,2013-05-20 10:52:00,
2013-05-20 07:02:00,58.0,51.0,30.02,NNW,344,4.0,-999.0,77,-99.99,,,-99.99,,2013-05-20 11:02:00,
2013-05-20 07:12:00,58.0,51.0,30.02,NNW,344,4.0,-999.0,77,-99.99,,,-99.99,,2013-05-20 11:12:00,
2013-05-20 07:22:00,59.0,52.0,30.02,North,9,5.0,-999.0,78,-99.99,,,-99.99,,2013-05-20 11:22:00,
2013-05-20 07:32:00,59.0,51.0,30.03,NNW,333,6.0,-999.0,75,-99.99,,,-99.99,,2013-05-20 11:32:00,
2013-05-20 07:42:00,59.0,51.0,30.03,NNW,333,6.0,-999.0,75,-99.99,,,-99.99,,2013-05-20 11:42:00,
2013-05-20 07:51:00,60.0,51.0,30.03,NW,325,5.0,-999.0,73,-99.99,,,-99.99,,2013-05-20 11:51:00,
2013-05-20 08:01:00,62.0,51.0,30.03,NW,323,6.0,-999.0,67,-99.99,,,-99.99,,2013-05-20 12:01:00,
2013-05-20 08:12:00,62.0,51.0,30.03,NW,323,6.0,-999.0,67,-99.99,,,-99.99,,2013-05-20 12:12:00,
2013-05-20 08:21:00,62.0,50.0,30.04,NW,325,5.0,-999.0,64,-99.99,,,-99.99,,2013-05-20 12:21:00,
2013-05-20 08:32:00,63.0,51.0,30.04,NNW,344,4.0,-999.0,64,-99.99,,,-99.99,,2013-05-20 12:32:00,
2013-05-20 08:42:00,63.0,51.0,30.04,NNW,344,4.0,-999.0,64,-99.99,,,-99.99,,2013-05-20 12:42:00,
2013-05-20 08:52:00,63.0,51.0,30.05,NW,322,4.0,-999.0,64,-99.99,,,-99.99,,2013-05-20 12:52:00,
2013-05-20 09:01:00,63.0,51.0,30.04,NW,322,4.0,-999.0,64,-99.99,,,-99.99,,2013-05-20 13:01:00,
2013-05-20 09:11:00,63.0,51.0,30.04,NW,322,4.0,-999.0,64,-99.99,,,-99.99,,2013-05-20 13:11:00,
2013-05-20 09:22:00,64.0,52.0,30.05,NNW,330,5.0,-999.0,65,-99.99,,,-99.99,,2013-05-20 13:22:00,
2013-05-20 09:32:00,65.0,52.0,30.05,NE,35,3.0,-999.0,62,-99.99,,,-99.99,,2013-05-20 13:32:00,
2013-05-20 09:42:00,65.0,52.0,30.05,NE,35,3.0,-999.0,62,-99.99,,,-99.99,,2013-05-20 13:42:00,
2013-05-20 09:52:00,66.0,52.0,30.05,NNE,24,2.0,-999.0,60,-99.99,,,-99.99,,2013-05-20 13:52:00,
2013-05-20 10:01:00,66.0,52.0,30.05,WNW,294,2.0,-999.0,60,-99.99,,,-99.99,,2013-05-20 14:01:00,
2013-05-20 10:11:00,66.0,52.0,30.05,WNW,294,2.0,-999.0,60,-99.99,,,-99.99,,2013-05-20 14:11:00,
2013-05-20 10:22:00,67.0,52.0,30.05,NNE,19,3.0,-999.0,59,-99.99,,,-99.99,,2013-05-20 14:22:00,
2013-05-20 10:32:00,67.0,53.0,30.05,NNE,13,4.0,-999.0,60,-99.99,,,-99.99,,2013-05-20 14:32:00,
2013-05-20 10:42:00,67.0,53.0,30.05,NNE,13,4.0,-999.0,60,-99.99,,,-99.99,,2013-05-20 14:42:00,
2013-05-20 10:52:00,67.0,53.0,30.05,NNE,22,3.0,-999.0,60,-99.99,,,-99.99,,2013-05-20 14:52:00,
2013-05-20 11:01:00,68.0,52.0,30.05,North,11,3.0,-999.0,56,-99.99,,,-99.99,,2013-05-20 15:01:00,
2013-05-20 11:12:00,68.0,52.0,30.05,North,11,3.0,-999.0,56,-99.99,,,-99.99,,2013-05-20 15:12:00,
2013-05-20 11:22:00,68.0,53.0,30.05,NNW,345,2.0,-999.0,58,-99.99,,,-99.99,,2013-05-20 15:22:00,
2013-05-20 11:33:00,70.0,54.0,30.05,North,11,2.0,-999.0,57,-99.99,,,-99.99,,2013-05-20 15:33:00,
2013-05-20 11:42:00,70.0,54.0,30.05,North,11,2.0,-999.0,57,-99.99,,,-99.99,,2013-05-20 15:42:00,
2013-05-20 11:53:00,69.0,54.0,30.05,NNW,345,2.0,-999.0,59,-99.99,,,-99.99,,2013-05-20 15:53:00,
2013-05-20 12:03:00,70.0,54.0,30.05,WNW,288,1.0,-999.0,57,-99.99,,,-99.99,,2013-05-20 16:03:00,
2013-05-20 12:13:00,70.0,54.0,30.05,WNW,288,1.0,-999.0,57,-99.99,,,-99.99,,2013-05-20 16:13:00,
2013-05-20 12:23:00,70.0,54.0,30.05,North,5,2.0,-999.0,56,-99.99,,,-99.99,,2013-05-20 16:23:00,
2013-05-20 12:33:00,72.0,55.0,30.04,NNW,338,2.0,-999.0,55,-99.99,,,-99.99,,2013-05-20 16:33:00,
2013-05-20 12:42:00,72.0,55.0,30.04,NNW,338,2.0,-999.0,55,-99.99,,,-99.99,,2013-05-20 16:42:00,
2013-05-20 12:52:00,72.0,55.0,30.03,NNW,346,2.0,-999.0,55,-99.99,,,-99.99,,2013-05-20 16:52:00,
2013-05-20 13:03:00,72.0,55.0,30.03,NNW,336,2.0,-999.0,56,-99.99,,,-99.99,,2013-05-20 17:03:00,
2013-05-20 13:12:00,72.0,55.0,30.03,NNW,336,2.0,-999.0,56,-99.99,,,-99.99,,2013-05-20 17:12:00,
2013-05-20 13:22:00,73.0,57.0,30.03,West,281,1.0,-999.0,58,-99.99,,,-99.99,,2013-05-20 17:22:00,
2013-05-20 13:33:00,73.0,57.0,30.03,West,281,1.0,-999.0,58,-99.99,,,-99.99,,2013-05-20 17:33:00,
2013-05-20 13:45:00,73.0,57.0,30.03,West,281,1.0,-999.0,58,-99.99,,,-99.99,,2013-05-20 17:45:00,
2013-05-20 13:53:00,70.0,61.0,30.02,ESE,108,1.0,-999.0,74,-99.99,,,-99.99,,2013-05-20 17:53:00,
2013-05-20 14:02:00,70.0,62.0,30.02,ESE,104,3.0,-999.0,76,-99.99,,,-99.99,,2013-05-20 18:02:00,
2013-05-20 14:12:00,70.0,62.0,30.02,ESE,104,3.0,-999.0,76,-99.99,,,-99.99,,2013-05-20 18:12:00,
2013-05-20 14:23:00,70.0,62.0,30.02,ESE,104,1.0,-999.0,75,-99.99,,,-99.99,,2013-05-20 18:23:00,
2013-05-20 14:33:00,71.0,63.0,30.01,ESE,105,2.0,-999.0,75,-99.99,,,-99.99,,2013-05-20 18:33:00,
2013-05-20 14:42:00,71.0,63.0,30.01,ESE,105,2.0,-999.0,75,-99.99,,,-99.99,,2013-05-20 18:42:00,
2013-05-20 14:55:00,69.0,62.0,30.02,ENE,70,3.0,-999.0,79,-99.99,,,-99.99,,2013-05-20 18:55:00,
2013-05-20 15:04:00,68.0,63.0,30.03,ESE,119,4.0,-999.0,84,-99.99,,,-99.99,,2013-05-20 19:04:00,
2013-05-20 15:11:00,68.0,63.0,30.03,ESE,119,4.0,-999.0,84,-99.99,,,-99.99,,2013-05-20 19:11:00,
2013-05-20 15:21:00,67.0,63.0,30.02,ESE,109,4.0,-999.0,87,-99.99,,,-99.99,,2013-05-20 19:21:00,
2013-05-20 15:32:00,67.0,63.0,30.01,ESE,102,3.0,-999.0,87,-99.99,,,-99.99,,2013-05-20 19:32:00,
2013-05-20 15:42:00,67.0,63.0,30.01,ESE,102,3.0,-999.0,87,-99.99,,,-99.99,,2013-05-20 19:42:00,
2013-05-20 15:52:00,67.0,63.0,30.01,East,90,3.0,-999.0,87,-99.99,,,-99.99,,2013-05-20 19:52:00,
2013-05-20 16:01:00,67.0,63.0,30.01,East,101,3.0,-999.0,88,-99.99,,,-99.99,,2013-05-20 20:01:00,
2013-05-20 16:12:00,67.0,64.0,30.01,ESE,115,3.0,-999.0,89,-99.99,,,-99.99,,2013-05-20 20:12:00,
2013-05-20 16:21:00,67.0,64.0,30.01,ESE,115,3.0,-999.0,89,-99.99,,,-99.99,,2013-05-20 20:21:00,
2013-05-20 16:32:00,66.0,63.0,30.01,East,93,4.0,-999.0,90,-99.99,,,-99.99,,2013-05-20 20:32:00,
2013-05-20 16:42:00,67.0,63.0,30.01,East,95,4.0,-999.0,88,-99.99,,,-99.99,,2013-05-20 20:42:00,
2013-05-20 16:52:00,67.0,63.0,30.01,East,95,4.0,-999.0,88,-99.99,,,-99.99,,2013-05-20 20:52:00,
2013-05-20 17:01:00,66.0,63.0,30.01,East,99,3.0,-999.0,91,-99.99,,,-99.99,,2013-05-20 21:01:00,
2013-05-20 17:11:00,64.0,62.0,30.03,East,98,4.0,-999.0,94,-99.99,,,-99.99,,2013-05-20 21:11:00,
2013-05-20 17:21:00,64.0,62.0,30.03,East,98,4.0,-999.0,94,-99.99,,,-99.99,,2013-05-20 21:21:00,
2013-05-20 17:33:00,63.0,62.0,30.03,East,98,4.0,-999.0,96,-99.99,,,-99.99,,2013-05-20 21:33:00,
2013-05-20 17:43:00,63.0,62.0,30.03,East,98,4.0,-999.0,97,-99.99,,,-99.99,,2013-05-20 21:43:00,
2013-05-20 17:53:00,63.0,62.0,30.03,East,98,4.0,-999.0,97,-99.99,,,-99.99,,2013-05-20 21:53:00,
2013-05-20 18:02:00,62.0,61.0,30.03,ESE,103,5.0,-999.0,97,-99.99,,,-99.99,,2013-05-20 22:02:00,
2013-05-20 18:13:00,62.0,61.0,30.03,ESE,103,5.0,-999.0,97,-99.99,,,-99.99,,2013-05-20 22:13:00,
2013-05-20 18:23:00,62.0,61.0,30.04,SSE,159,4.0,-999.0,97,-99.99,,,-99.99,,2013-05-20 22:23:00,
2013-05-20 18:33:00,62.0,61.0,30.02,East,84,3.0,-999.0,97,-99.99,,,-99.99,,2013-05-20 22:33:00,
2013-05-20 18:42:00,62.0,61.0,30.02,East,84,3.0,-999.0,97,-99.99,,,-99.99,,2013-05-20 22:42:00,
2013-05-20 18:52:00,61.0,60.0,30.03,East,98,4.0,-999.0,95,-99.99,,,-99.99,,2013-05-20 22:52:00,
2013-05-20 19:03:00,62.0,60.0,30.03,SSE,149,2.0,-999.0,93,-99.99,,,-99.99,,2013-05-20 23:03:00,
2013-05-20 19:12:00,62.0,60.0,30.03,SSE,149,2.0,-999.0,93,-99.99,,,-99.99,,2013-05-20 23:12:00,
2013-05-20 19:22:00,63.0,60.0,30.00,East,98,1.0,-999.0,89,-99.99,,,-99.99,,2013-05-20 23:22:00,
2013-05-20 19:32:00,65.0,57.0,29.98,SW,230,0.0,-999.0,76,-99.99,,,-99.99,,2013-05-20 23:32:00,
2013-05-20 19:42:00,65.0,57.0,29.98,SW,230,0.0,-999.0,76,-99.99,,,-99.99,,2013-05-20 23:42:00,
2013-05-20 19:52:00,66.0,56.0,29.96,South,188,0.0,-999.0,71,-99.99,,,-99.99,,2013-05-20 23:52:00,
2013-05-20 20:01:00,67.0,59.0,29.96,SW,215,0.0,-999.0,76,-99.99,,,-99.99,,2013-05-21 00:01:00,
2013-05-20 20:11:00,67.0,59.0,29.96,SW,215,0.0,-999.0,76,-99.99,,,-99.99,,2013-05-21 00:11:00,
2013-05-20 20:22:00,66.0,60.0,29.96,SW,228,0.0,-999.0,82,-99.99,,,-99.99,,2013-05-21 00:22:00,
2013-05-20 20:32:00,65.0,61.0,29.96,SSW,201,0.0,-999.0,87,-99.99,,,-99.99,,2013-05-21 00:32:00,
2013-05-20 20:42:00,64.0,61.0,29.97,East,99,0.0,-999.0,90,-99.99,,,-99.99,,2013-05-21 00:42:00,
2013-05-20 20:52:00,64.0,61.0,29.97,East,99,0.0,-999.0,90,-99.99,,,-99.99,,2013-05-21 00:52:00,
2013-05-20 21:01:00,62.0,61.0,29.98,ESE,113,2.0,-999.0,95,-99.99,,,-99.99,,2013-05-21 01:01:00,
2013-05-20 21:12:00,62.0,61.0,29.98,ESE,113,2.0,-999.0,95,-99.99,,,-99.99,,2013-05-21 01:12:00,
2013-05-20 21:22:00,62.0,61.0,29.98,ESE,108,2.0,-999.0,96,-99.99,,,-99.99,,2013-05-21 01:22:00,
2013-05-20 21:32:00,62.0,61.0,29.98,ESE,105,2.0,-999.0,96,-99.99,,,-99.99,,2013-05-21 01:32:00,
2013-05-20 21:42:00,61.0,60.0,29.98,ESE,121,1.0,-999.0,97,-99.99,,,-99.99,,2013-05-21 01:42:00,
2013-05-20 21:52:00,61.0,60.0,29.98,ESE,121,1.0,-999.0,97,-99.99,,,-99.99,,2013-05-21 01:52:00,
2013-05-20 22:02:00,61.0,60.0,29.98,SE,126,1.0,-999.0,98,-99.99,,,-99.99,,2013-05-21 02:02:00,
2013-05-20 22:11:00,61.0,60.0,29.98,SE,126,1.0,-999.0,98,-99.99,,,-99.99,,2013-05-21 02:11:00,
2013-05-20 22:21:00,62.0,61.0,29.98,SSE,150,1.0,-999.0,98,-99.99,,,-99.99,,2013-05-21 02:21:00,
2013-05-20 22:32:00,62.0,61.0,29.97,SE,136,3.0,-999.0,98,-99.99,,,-99.99,,2013-05-21 02:32:00,
2013-05-20 22:42:00,62.0,61.0,29.98,SSE,147,2.0,-999.0,98,-99.99,,,-99.99,,2013-05-21 02:42:00,
2013-05-20 22:52:00,62.0,61.0,29.98,SSE,147,2.0,-999.0,98,-99.99,,,-99.99,,2013-05-21 02:52:00,
2013-05-20 23:02:00,62.0,61.0,29.98,SSE,155,1.0,-999.0,98,-99.99,,,-99.99,,2013-05-21 03:02:00,
2013-05-20 23:11:00,62.0,61.0,29.98,SSE,155,1.0,-999.0,98,-99.99,,,-99.99,,2013-05-21 03:11:00,
2013-05-20 23:21:00,62.0,61.0,29.98,SSE,148,2.0,-999.0,98,-99.99,,,-99.99,,2013-05-21 03:21:00,
2013-05-20 23:33:00,62.0,61.0,29.97,SSW,201,3.0,-999.0,98,-99.99,,,-99.99,,2013-05-21 03:33:00,
2013-05-20 23:43:00,62.0,61.0,29.97,SE,145,2.0,-999.0,98,-99.99,,,-99.99,,2013-05-21 03:43:00,
2013-05-20 23:53:00,62.0,61.0,29.97,SE,145,2.0,-999.0,98,-99.99,,,-99.99,,2013-05-21 03:53:00,